Preview of NWS' New Version of Forecast
This preview is not operational and should not be used for support decisions.
Latest weather observations around

Las Vegas, North Las Vegas Airport (KVGT)

Using English Units (Switch to International System of Units)
Date/ Time (PDT) Wind (mph) Vis. (mi) Weather Sky Cond. Temp (°F) Rel. Humidity Wind Chill (°F) Heat Index (°F) Pressure Precip. (in)
Air Dwpt 6 hour Altimeter (inHg) Sea level (inHg) 1 hr 3 hr 6 hr
Max Min
Sep 20 12:53 N 7 10 Clear CLR 78 29     16%   76 29.92 29.91      
Sep 20 11:53 NNW 14 10 Clear CLR 77 30     18%   75 29.93 29.93      
Sep 20 10:53 NNW 16 10 Clear CLR 74 33     22%   72 29.94 29.93      
Sep 20 09:53 NNW 16 10 Clear CLR 73 34     24%   71 29.94 29.94      
Sep 20 08:53   10 Clear CLR 70 34     26%     29.92 29.91      
Sep 20 07:53 NW 17 10 Clear CLR 67 33     28%     29.9 29.89      
Sep 20 06:53 NW 14 10 Clear CLR 65 32     29%     29.88 29.88      
Sep 20 05:53 NW 18 10 Clear CLR 65 32     29%     29.86 29.85      
Sep 20 04:53 NNW 16 10 Clear CLR 67 32     27%     29.84 29.83      
Sep 20 03:53 NNW 10 10 Clear CLR 68 31     25%     29.83 29.81      
Sep 20 02:53 NNW 14 10 Clear CLR 68 31     25%     29.82 29.8      
Sep 20 01:53 NW 10 10 Clear CLR 71 30     22%   69 29.82 29.8      
Sep 20 00:53 WNW 18 10 Clear CLR 71 30     22%   69 29.8 29.78      
Sep 19 23:53 NW 16 10 Clear CLR 71 30     22%   69 29.79 29.78      
Sep 19 22:53   10 Clear CLR 73 30     20%   71 29.77 29.76      
Sep 19 21:53   10 Clear CLR 74 31     20%   72 29.74 29.72      
Sep 19 21:27   10 Clear CLR 76 30     18%   74 29.73        
Sep 19 20:53 SSW 16 10 Clear CLR 78 26     15%   76 29.7 29.69      
Sep 19 19:53 SSW 16 10 Clear CLR 80 23     12%   78 29.69 29.67      
Sep 19 18:53 SSW 14 10 Clear CLR 82 22     11%   79 29.67 29.65      
Sep 19 17:53 SW 17 10 Clear CLR 84 25     12%   81 29.66 29.64      
Sep 19 16:53 WSW 15 10 Clear CLR 87 22     9%   83 29.67 29.65      
Sep 19 15:53 SSW 13 10 Clear CLR 87 25     10%   83 29.67 29.65      
Sep 19 14:53 SSW 17 10 Clear CLR 87 28     12%   83 29.68 29.65      
Sep 19 13:53 SSW 20 10 Clear and Windy CLR 86 29     13%   83 29.7 29.67      
Sep 19 12:53   10 Clear CLR 86 26     11%   82 29.7 29.68      
Sep 19 11:53 SSW 18 10 Clear CLR 84 29     14%   81 29.73 29.71      
Sep 19 10:53 SSW 20 10 Clear and Windy CLR 82 33     17%   80 29.75 29.72      
Sep 19 09:53   10 Clear CLR 80 37     21%   79 29.74 29.72      
Sep 19 08:53 S 20 10 Clear and Windy CLR 78 38     24%   77 29.75 29.73      
Sep 19 07:53   10 Clear CLR 76 38     25%   74 29.75 29.72      
Sep 19 06:53 SSW 16 10 Clear CLR 73 39     29%   71 29.74 29.72      
Sep 19 05:53 SSE 6 10 Clear CLR 73 38     28%   71 29.73 29.7      
Sep 19 04:53 SE 10 10 Clear CLR 73 37     27%   71 29.73        
Sep 19 03:53 SW 5 10 Clear CLR 75 36     24%   73 29.73 29.7      
Sep 19 02:53 3 10 Clear CLR 78 34     20%   77 29.74 29.71      
Sep 19 01:53 SE 16 10 Clear CLR 78 34     20%   77 29.74 29.71      
Sep 19 00:53   10 Clear CLR 80 32     17%   79 29.74 29.71      
Sep 18 23:53 SSE 7 10 Clear CLR 77 30     18%   75 29.76 29.73      
Sep 18 22:53 S 10 10 Clear CLR 82 29     14%   80 29.76        
Sep 18 21:53 SSW 9 10 Clear CLR 83 30     15%   80 29.76 29.75      
Sep 18 20:53 S 8 10 Clear CLR 83 30     15%   80 29.76 29.74      
Sep 18 19:53 SSW 17 10 Clear CLR 85 28     13%   82 29.75 29.74      
Sep 18 18:53 SSW 16 10 Clear CLR 87 26     11%   83 29.74 29.72      
Sep 18 17:53 SSW 17 10 Clear CLR 90 22     8%   85 29.75 29.73      
Sep 18 16:53 SSW 14 10 Clear CLR 91 20     7%   86 29.76 29.74      
Sep 18 15:53 SSW 17 10 Clear CLR 92 25     9%   87 29.77 29.75      
Sep 18 14:53 S 18 10 Clear CLR 92 26     9%   87 29.79 29.77      
Sep 18 12:53   10 Clear CLR 89 27     11%   85 29.85 29.83      
Sep 18 11:53 ESE 11 10 Clear CLR 85 31     14%   82 29.87 29.85      
Sep 18 10:53 E 8 10 Clear CLR 81 32     17%   80 29.91 29.89      
Sep 18 09:53 Calm 10 Clear CLR 76 29     18%   74 29.92 29.91      
Sep 18 06:53 Calm 10 Clear CLR 64 34     33%     29.89 29.88      
Sep 18 05:53 WNW 5 10 Clear CLR 64 31     29%     29.87 29.86      
Sep 18 04:53 SW 3 10 Clear CLR 68 30     24%     29.86 29.85      
Sep 18 03:53 ESE 3 10 Clear CLR 66 29     25%     29.87        
Sep 18 02:53 NW 6 10 Clear CLR 69 29     22%     29.86 29.85      
Sep 18 01:53 WNW 6 10 Clear CLR 71 29     21%   69 29.87 29.85      
Sep 18 00:53 NW 5 10 Clear CLR 72 29     20%   70 29.87 29.85      
Sep 17 23:53 NW 5 10 Clear CLR 74 30     20%   72 29.87 29.85      
Sep 17 22:53 WNW 6 10 Clear CLR 77 29     17%   75 29.87 29.86      
Sep 17 21:53 Calm 10 Clear CLR 78 33     19%   77 29.88 29.86      
Sep 17 20:53 S 6 10 Clear CLR 81 33     18%   80 29.87 29.85      
Sep 17 19:53 SW 8 10 Clear   83 26     12%   80 29.86 29.84      
Sep 17 18:53 SSW 13 10 Clear CLR 85 24     11%   81 29.85 29.83      
Sep 17 17:53 SSW 8 10 Clear CLR 87 22     9%   83 29.85 29.83      
Sep 17 16:53 5 10 Clear CLR 87 22     9%   83 29.86 29.84      
Sep 17 15:53   10 Clear CLR 88 23     9%   84 29.87 29.85      
Sep 17 14:53 Calm 10 Clear CLR 86 25     11%   82 29.89 29.87      
Sep 17 13:53 NNE 6 10 Clear CLR 86 27     12%   82 29.92 29.9      
Sep 17 12:53 Calm 10 Clear CLR 83 32     16%   80 29.95 29.93      
Sep 17 11:53 Calm 10 Clear CLR 81 31     16%   80 29.96 29.94      
May 15 10:53 ESE 8   Clear CLR 79 35     20%   78 29.96 29.94      
May 15 06:53 N 11 10 Clear CLR 68 41     37%     29.92        
May 15 04:53   10 Clear CLR 69 41     36%     29.88 29.87      
May 14 19:53 SSE 11 10 Clear CLR 81 27     14%   79 29.8        
May 14 12:53 SSW 9 10 Clear CLR 81 32     17%   80 29.88        
May 13 12:53 SSE 11 10 Clear CLR 80 27     14%   78 29.85 29.85      
May 12 03:53   10 Mostly Cloudy BKN110 61 35     38%     29.73 29.72      
Jun 12 03:53   10 Clear CLR 60 28     29%     29.8        
Jun 11 12:53   10 Clear CLR 87 22     9%   83 29.64 29.61      
Jun 10 20:53 SW 14 10 Clear CLR 84 36     18%   81 29.61        
Jun 09 13:53   10 Clear CLR 94 36     13%   89 29.71 29.67      
Jun 09 12:53   10 Clear CLR 94 37     14%   89 29.73 29.69      
Jun 09 07:53 SSW 15 10 Clear CLR 82 34     18%   80 29.78 29.75      
Jun 09 01:53 S 8 10 Clear CLR 80 28     15%   78 29.76 29.72      
Jun 09 00:53 S 8 10 Clear CLR 82 26     13%   80 29.77 29.73      
Jun 07 15:53   10 Clear CLR 101        %     29.79 29.75      
Jun 06 00:53 NW 6 10 Clear CLR 83 25     12%   80 29.81 29.77      
Jun 05 19:53 WSW 10 10 Clear   96 18     6%   89 29.77 29.73